| time (UTC) | temp C | wind direction | speed KPH | gust KPH | rain 1hr cm | rain 24hr cm | rain mn cm | humidity % | barometer mb |
| 20260509000005 | 17 | 216 | 0.0 | 0.0 | 0.00 | 0.00 | 0.00 | 68 | 1015.7 |
| 20260508234503 | 17 | 169 | 0.0 | 4.8 | 0.00 | 0.00 | 0.00 | 66 | 1015.6 |
| 20260508233008 | 17 | 184 | 1.6 | 4.8 | 0.00 | 0.00 | 0.00 | 65 | 1015.6 |
| 20260508231510 | 18 | 204 | 0.0 | 0.0 | 0.00 | 0.00 | 0.00 | 64 | 1015.8 |
| 20260508230017 | 18 | 207 | 0.0 | 0.0 | 0.00 | 0.00 | 0.00 | 62 | 1015.5 |
| 20260508224504 | 18 | 174 | 0.0 | 0.0 | 0.00 | 0.00 | 0.00 | 58 | 1015.5 |
| 20260508223002 | 19 | 229 | 1.6 | 3.2 | 0.00 | 0.00 | 0.00 | 56 | 1015.5 |
| 20260508221508 | 19 | 249 | 1.6 | 6.4 | 0.00 | 0.00 | 0.00 | 55 | 1015.5 |
| 20260508220012 | 19 | 196 | 1.6 | 6.4 | 0.00 | 0.00 | 0.00 | 55 | 1015.5 |
| 20260508214518 | 20 | 190 | 0.0 | 4.8 | 0.00 | 0.00 | 0.00 | 54 | 1015.5 |
| 20260508213013 | 20 | 223 | 3.2 | 8.0 | 0.00 | 0.00 | 0.00 | 52 | 1015.6 |
| 20260508211506 | 20 | 263 | 4.8 | 11.3 | 0.00 | 0.00 | 0.00 | 53 | 1015.7 |
| 20260508210009 | 20 | 194 | 3.2 | 8.0 | 0.00 | 0.00 | 0.00 | 51 | 1015.6 |
| 20260508204513 | 20 | 162 | 4.8 | 11.3 | 0.00 | 0.00 | 0.00 | 51 | 1015.7 |
| 20260508203018 | 21 | 127 | 3.2 | 11.3 | 0.00 | 0.00 | 0.00 | 50 | 1015.8 |
| 20260508201503 | 21 | 282 | 3.2 | 12.9 | 0.00 | 0.00 | 0.00 | 49 | 1015.8 |
| 20260508200015 | 21 | 139 | 6.4 | 14.5 | 0.00 | 0.00 | 0.00 | 47 | 1016.1 |
| 20260508194508 | 21 | 214 | 3.2 | 12.9 | 0.00 | 0.00 | 0.00 | 47 | 1016.5 |
| 20260508193017 | 21 | 234 | 3.2 | 14.5 | 0.00 | 0.00 | 0.00 | 47 | 1016.7 |
| 20260508191520 | 20 | 281 | 3.2 | 9.7 | 0.00 | 0.00 | 0.00 | 49 | 1017.0 |
| 20260508190006 | 21 | 205 | 6.4 | 11.3 | 0.00 | 0.00 | 0.00 | 47 | 1017.1 |
| 20260508184508 | 21 | 235 | 6.4 | 11.3 | 0.00 | 0.00 | 0.00 | 50 | 1017.3 |
| 20260508183012 | 20 | 156 | 3.2 | 11.3 | 0.00 | 0.00 | 0.00 | 48 | 1017.5 |
| 20260508181525 | 20 | 181 | 3.2 | 14.5 | 0.00 | 0.00 | 0.00 | 48 | 1017.6 |
| 20260508180021 | 20 | 76 | 3.2 | 11.3 | 0.00 | 0.00 | 0.00 | 51 | 1017.8 |
| 20260508174505 | 19 | 126 | 3.2 | 9.7 | 0.00 | 0.00 | 0.00 | 51 | 1018.0 |
| 20260508173015 | 19 | 230 | 3.2 | 14.5 | 0.00 | 0.00 | 0.00 | 51 | 1018.1 |
| 20260508171522 | 20 | 225 | 6.4 | 11.3 | 0.00 | 0.00 | 0.00 | 48 | 1018.2 |
| 20260508170016 | 20 | 185 | 4.8 | 11.3 | 0.00 | 0.00 | 0.00 | 49 | 1018.6 |
| 20260508164523 | 21 | 135 | 4.8 | 9.7 | 0.00 | 0.00 | 0.00 | 52 | 1018.8 |
| 20260508163023 | 20 | 232 | 6.4 | 14.5 | 0.00 | 0.00 | 0.00 | 47 | 1019.1 |
| 20260508161511 | 20 | 275 | 3.2 | 6.4 | 0.00 | 0.00 | 0.00 | 49 | 1019.2 |
| 20260508160021 | 18 | 217 | 1.6 | 9.7 | 0.00 | 0.00 | 0.00 | 55 | 1019.3 |
| 20260508154519 | 19 | 162 | 6.4 | 14.5 | 0.00 | 0.00 | 0.00 | 52 | 1019.6 |
| 20260508153032 | 19 | 278 | 1.6 | 4.8 | 0.00 | 0.00 | 0.00 | 49 | 1019.7 |
| 20260508151524 | 19 | 84 | 3.2 | 6.4 | 0.00 | 0.00 | 0.00 | 51 | 1019.8 |
| 20260508150009 | 19 | 68 | 1.6 | 8.0 | 0.00 | 0.00 | 0.00 | 50 | 1019.8 |
| 20260508144515 | 18 | 316 | 4.8 | 9.7 | 0.00 | 0.00 | 0.00 | 54 | 1019.7 |
| 20260508143022 | 18 | 203 | 3.2 | 9.7 | 0.00 | 0.00 | 0.00 | 56 | 1019.6 |
| 20260508141524 | 17 | 333 | 3.2 | 9.7 | 0.00 | 0.00 | 0.00 | 56 | 1019.8 |
| 20260508140028 | 17 | 88 | 3.2 | 8.0 | 0.00 | 0.00 | 0.00 | 58 | 1020.1 |
| 20260508134514 | 16 | 84 | 1.6 | 8.0 | 0.00 | 0.00 | 0.00 | 65 | 1020.1 |
| 20260508133015 | 16 | 110 | 1.6 | 8.0 | 0.00 | 0.05 | 0.00 | 65 | 1020.1 |
| 20260508131520 | 16 | 86 | 0.0 | 4.8 | 0.00 | 0.10 | 0.00 | 65 | 1020.0 |
| 20260508130026 | 15 | 83 | 0.0 | 3.2 | 0.00 | 0.25 | 0.00 | 69 | 1019.8 |
| 20260508124524 | 13 | 360 | 1.6 | 4.8 | 0.00 | 0.33 | 0.00 | 73 | 1019.4 |
| 20260508123013 | 12 | 54 | 0.0 | 4.8 | 0.00 | 0.36 | 0.00 | 77 | 1019.3 |
| 20260508121516 | 12 | 43 | 1.6 | 6.4 | 0.00 | 0.36 | 0.00 | 80 | 1019.2 |
| 20260508120022 | 11 | 32 | 0.0 | 6.4 | 0.00 | 0.36 | 0.00 | 85 | 1018.9 |
| 20260508114525 | 10 | 35 | 0.0 | 3.2 | 0.00 | 0.36 | 0.00 | 95 | 1018.7 |
| 20260508113028 | 8 | 38 | 0.0 | 0.0 | 0.00 | 0.43 | 0.00 | 96 | 1018.6 |
| 20260508111512 | 8 | 60 | 0.0 | 0.0 | 0.00 | 0.61 | 0.00 | 96 | 1018.2 |
| 20260508110017 | 7 | 60 | 0.0 | 0.0 | 0.00 | 0.86 | 0.00 | 96 | 1018.0 |
| 20260508104522 | 7 | 60 | 0.0 | 0.0 | 0.00 | 1.22 | 0.00 | 96 | 1017.6 |
| 20260508103024 | 7 | 60 | 0.0 | 0.0 | 0.00 | 1.22 | 0.00 | 95 | 1017.4 |
| 20260508101528 | 7 | 60 | 0.0 | 0.0 | 0.00 | 1.24 | 0.00 | 95 | 1017.2 |
| 20260508100012 | 8 | 60 | 0.0 | 0.0 | 0.00 | 1.32 | 0.00 | 95 | 1017.1 |
| 20260508094521 | 8 | 60 | 0.0 | 0.0 | 0.00 | 1.68 | 0.00 | 95 | 1017.0 |
| 20260508093025 | 8 | 60 | 0.0 | 0.0 | 0.00 | 1.68 | 0.00 | 95 | 1016.8 |
| 20260508091529 | 8 | 60 | 0.0 | 0.0 | 0.00 | 1.68 | 0.00 | 95 | 1016.8 |
| 20260508090009 | 8 | 60 | 0.0 | 0.0 | 0.00 | 1.68 | 0.00 | 94 | 1016.7 |
| 20260508084512 | 8 | 60 | 0.0 | 0.0 | 0.00 | 1.70 | 0.00 | 95 | 1016.6 |
| 20260508083021 | 8 | 60 | 0.0 | 0.0 | 0.00 | 1.73 | 0.00 | 94 | 1016.6 |
| 20260508081529 | 9 | 60 | 0.0 | 0.0 | 0.00 | 1.88 | 0.00 | 95 | 1016.4 |
| 20260508080026 | 9 | 60 | 0.0 | 0.0 | 0.00 | 2.11 | 0.00 | 95 | 1016.3 |
| 20260508074512 | 9 | 60 | 0.0 | 0.0 | 0.00 | 2.26 | 0.00 | 95 | 1016.5 |
| 20260508073016 | 9 | 60 | 0.0 | 0.0 | 0.00 | 2.54 | 0.00 | 94 | 1016.3 |
| 20260508071527 | 9 | 60 | 0.0 | 0.0 | 0.00 | 2.84 | 0.00 | 94 | 1016.2 |
| 20260508070022 | 9 | 60 | 0.0 | 0.0 | 0.00 | 2.92 | 0.00 | 94 | 1016.2 |
| 20260508064527 | 9 | 60 | 0.0 | 0.0 | 0.00 | 3.07 | 0.00 | 94 | 1015.9 |
| 20260508063009 | 10 | 60 | 0.0 | 0.0 | 0.00 | 3.38 | 0.00 | 94 | 1015.8 |
| 20260508061521 | 9 | 60 | 0.0 | 0.0 | 0.00 | 3.58 | 0.00 | 93 | 1016.0 |
| 20260508060021 | 10 | 60 | 0.0 | 0.0 | 0.00 | 3.68 | 0.00 | 93 | 1015.9 |
| 20260508054524 | 10 | 60 | 0.0 | 0.0 | 0.00 | 3.71 | 0.00 | 92 | 1016.0 |
| 20260508053031 | 10 | 60 | 0.0 | 0.0 | 0.00 | 3.81 | 0.00 | 91 | 1016.1 |
| 20260508051531 | 10 | 60 | 0.0 | 0.0 | 0.00 | 4.06 | 0.00 | 91 | 1016.0 |
| 20260508050016 | 11 | 60 | 0.0 | 0.0 | 0.00 | 4.19 | 0.00 | 91 | 1016.1 |
| 20260508044524 | 11 | 60 | 0.0 | 0.0 | 0.00 | 4.37 | 0.00 | 89 | 1016.0 |
| 20260508043026 | 11 | 60 | 0.0 | 0.0 | 0.00 | 4.65 | 0.00 | 89 | 1015.8 |
| 20260508041530 | 12 | 60 | 0.0 | 0.0 | 0.00 | 4.83 | 0.00 | 88 | 1015.7 |
| 20260508040014 | 12 | 60 | 0.0 | 0.0 | 0.00 | 4.83 | 0.00 | 87 | 1015.5 |
| 20260508034524 | 12 | 60 | 0.0 | 0.0 | 0.00 | 4.83 | 4.83 | 86 | 1015.8 |
| 20260508033006 | 12 | 60 | 0.0 | 0.0 | 0.00 | 4.83 | 4.83 | 86 | 1015.6 |
| 20260508031504 | 12 | 60 | 0.0 | 0.0 | 0.00 | 4.83 | 4.83 | 86 | 1015.6 |
| 20260508030008 | 13 | 60 | 0.0 | 0.0 | 0.00 | 4.83 | 4.83 | 84 | 1015.3 |
| 20260508024512 | 13 | 60 | 0.0 | 0.0 | 0.00 | 4.83 | 4.83 | 82 | 1015.3 |
| 20260508023021 | 14 | 60 | 0.0 | 0.0 | 0.00 | 4.83 | 4.83 | 79 | 1015.0 |
| 20260508021506 | 15 | 60 | 0.0 | 0.0 | 0.00 | 4.83 | 4.83 | 73 | 1014.7 |
| 20260508020003 | 15 | 47 | 0.0 | 0.0 | 0.00 | 4.85 | 4.83 | 73 | 1014.5 |
| 20260508014508 | 16 | 33 | 0.0 | 6.4 | 0.00 | 4.88 | 4.83 | 71 | 1014.1 |
| 20260508013015 | 16 | 4 | 1.6 | 8.0 | 0.00 | 4.93 | 4.83 | 70 | 1013.9 |
| 20260508011528 | 17 | 37 | 0.0 | 4.8 | 0.00 | 5.00 | 4.83 | 69 | 1013.5 |
| 20260508010022 | 17 | 15 | 3.2 | 11.3 | 0.00 | 5.51 | 4.83 | 67 | 1013.1 |
| 20260508004508 | 18 | 36 | 4.8 | 9.7 | 0.00 | 6.32 | 4.83 | 65 | 1013.0 |
| 20260508003011 | 19 | 236 | 1.6 | 12.9 | 0.00 | 6.32 | 4.83 | 61 | 1012.5 |
| 20260508001517 | 20 | 218 | 6.4 | 16.1 | 0.00 | 6.32 | 4.83 | 59 | 1011.9 |